Temperature
15 15 15 15 15 14 14 14 14 13 12 12 12 12 12 12 12 12 11 11 11 11 11 11 11 11 11 11 11 11 11 11 10 10 10 10 10 10
15 15 15 15 15 14 14 14 14 14 13 12 12 12 12 12 12 11 11 11 11 11 11 11 11 11 11 11 11 10 10 10 10 10 10 10 9 9
15 15 15 15 14 14 14 14 14 14 14 13 12 12 12 12 12 11 11 11 11 11 11 10 10 10 10 10 10 10 10 10 10 9 9 9 9 9
15 15 15 15 14 14 14 14 14 14 14 13 13 12 12 12 11 11 11 11 11 10 10 10 10 10 10 10 10 10 10 10 10 9 9 9 9 8
15 15 15 14 14 14 14 14 14 13 13 13 13 12 12 11 11 11 11 11 10 10 10 10 10 10 10 10 9 9 9 9 9 9 9 9 8 8
15 14 14 14 14 14 14 14 13 13 13 13 13 12 12 11 11 11 11 11 10 10 10 10 9 9 9 9 9 9 9 9 9 9 8 8 8 8
14 14 14 14 14 14 14 14 14 13 13 13 12 12 12 11 11 11 11 10 10 10 10 10 9 9 9 9 9 8 8 8 8 8 8 8 8 7
14 14 14 14 14 14 14 14 13 13 13 13 12 12 12 11 11 11 11 10 10 10 10 9 9 9 9 8 8 8 8 8 8 8 7 7 7 7
14 14 14 14 14 14 13 13 13 13 13 13 13 12 12 12 11 11 11 10 10 10 9 9 9 9 8 8 8 8 8 7 7 7 7 7 7 7
14 14 14 14 14 13 13 13 13 13 13 12 12 12 12 11 11 11 11 10 10 9 9 9 9 8 8 8 8 8 7 7 7 7 7 7 6 6
14 14 14 14 13 13 13 13 13 13 12 12 12 12 11 11 11 11 11 10 10 10 9 9 9 8 8 8 7 7 7 7 7 7 6 6 6 6
14 13 13 13 13 13 13 13 13 13 12 12 12 12 11 11 11 11 11 10 10 10 9 9 9 8 8 7 7 7 7 7 6 6 6 6 6 5
13 13 13 13 13 13 13 13 12 12 12 12 12 11 11 11 11 11 10 10 10 10 9 9 8 8 8 7 7 7 7 6 6 6 6 5 5 5
13 13 13 13 12 12 12 12 12 12 12 11 11 11 11 11 10 10 10 10 10 9 9 9 8 8 8 7 7 7 6 6 6 5 5 5 5 5
13 13 13 12 12 12 12 12 11 11 11 11 11 11 10 10 10 10 10 9 9 9 9 8 8 8 7 7 7 6 6 6 6 5 5 5 4 4
13 12 12 12 12 12 11 11 11 11 11 11 11 10 10 10 10 9 9 9 9 9 8 8 8 7 7 7 6 6 6 6 5 5 5 4 4 4
12 12 12 12 11 11 11 11 11 11 11 11 10 10 10 10 9 9 9 9 8 8 8 8 7 7 7 6 6 6 6 5 5 5 4 4 4 4
12 12 12 11 11 11 11 11 11 11 10 10 10 10 10 9 9 9 8 8 8 8 8 7 7 6 6 6 5 5 5 5 5 4 4 4 4 3
11 11 11 11 11 11 11 11 10 10 10 10 10 9 9 9 9 8 8 8 8 7 7 7 6 6 6 5 5 5 4 4 4 4 3 3 3 3
11 11 11 11 11 11 10 10 10 10 10 10 9 9 9 9 8 8 8 7 7 7 7 6 6 6 5 5 4 4 4 4 3 3 3 3 3 2
11 11 11 11 11 10 10 10 10 9 9 9 9 9 8 8 8 7 7 7 7 6 6 6 6 5 4 4 4 4 4 3 3 2 2 2 2 2
11 11 11 11 10 10 10 10 9 9 9 9 8 8 8 8 7 7 7 6 6 6 6 5 5 4 4 4 4 3 3 3 2 2 2 2 1 1
11 10 10 10 10 10 9 9 9 9 9 8 8 8 7 7 7 6 6 6 6 5 5 5 4 4 4 3 3 3 3 2 2 2 2 1 1 1
Wind_Speed
3 3 2 2 2 3 4 5 5 4 1 1 0 0 2 4 6 7 8 10 11 11 12 13 14 15 15 16 16 16 16 17 17 17 17 17 17 18
2 3 3 2 3 3 3 3 4 5 3 2 2 1 3 4 5 6 7 9 9 10 11 12 13 14 14 15 15 15 15 15 15 15 15 16 16 16
2 3 3 3 3 3 3 3 3 4 5 1 1 1 3 3 5 6 6 7 7 9 10 11 11 12 13 13 14 14 14 14 14 14 14 14 15 15
3 4 3 3 4 3 3 4 3 3 5 5 2 1 1 2 3 3 4 5 6 8 9 9 10 10 11 12 12 12 13 13 13 13 13 14 14 14
5 5 4 5 4 3 4 4 3 4 4 5 3 1 1 2 2 3 4 3 4 5 6 7 8 8 9 10 10 11 11 11 11 12 12 13 13 13
4 4 5 5 6 5 4 4 5 5 5 5 3 2 1 1 2 2 2 1 2 3 5 5 6 7 7 8 9 9 9 10 10 10 11 11 12 12
3 3 4 6 7 6 5 5 6 5 5 4 3 2 1 2 2 2 2 1 1 2 2 2 3 4 5 5 6 7 8 8 9 9 9 10 10 11
4 3 3 4 6 8 8 9 9 7 6 4 3 3 3 2 2 3 3 2 0 1 2 1 2 1 2 3 4 5 5 6 7 7 7 8 9 9
5 4 4 4 5 5 6 7 6 7 8 7 6 5 4 5 4 3 3 3 2 1 3 0 1 1 1 2 3 3 3 4 5 5 6 6 7 7
4 5 5 4 5 6 6 5 3 3 5 5 5 5 5 5 5 5 5 3 1 1 3 2 0 0 1 2 2 2 3 3 4 5 5 6 6 6
3 4 5 5 7 9 7 6 4 2 3 6 6 5 5 7 8 5 4 3 1 1 0 2 1 0 1 2 3 2 2 3 3 5 5 6 6 6
2 3 5 6 8 9 7 7 6 3 3 4 3 3 3 4 6 5 5 4 2 1 1 2 2 1 0 1 2 3 3 2 3 4 4 5 4 5
3 2 3 6 7 8 8 6 7 6 4 3 2 2 2 2 3 3 4 4 4 3 3 4 2 2 2 1 2 2 2 2 3 3 4 4 4 4
4 3 4 6 7 7 6 7 8 7 4 3 2 1 1 1 1 3 4 4 3 3 4 5 3 3 3 1 1 2 2 2 2 2 3 4 4 4
4 6 6 7 6 5 7 8 7 4 4 3 3 3 2 2 2 3 4 5 6 4 3 4 4 3 3 3 2 1 1 2 2 2 2 2 3 3
4 5 6 6 4 4 4 4 4 4 4 4 3 2 1 1 2 2 2 2 2 2 4 3 4 4 2 2 2 2 1 1 2 2 2 2 3 4
5 3 3 2 2 2 1 2 2 3 3 2 3 2 2 2 2 1 2 2 2 1 1 2 4 4 3 3 1 2 2 2 2 1 1 1 3 5
7 4 4 4 4 4 3 2 2 3 3 3 3 3 3 3 2 2 2 3 3 2 2 1 1 1 2 2 1 2 2 2 2 1 1 1 3 4
5 5 5 5 5 4 4 3 3 3 3 3 4 3 3 3 3 3 3 3 2 2 2 2 2 2 2 3 3 1 2 1 1 1 1 2 3 4
4 5 5 5 4 4 4 3 3 3 2 3 3 3 3 3 3 3 3 4 3 2 1 1 2 3 4 4 2 2 1 1 2 2 2 2 3 5
5 5 5 5 4 4 4 4 4 3 3 3 3 3 3 3 3 3 3 4 3 2 3 3 3 3 2 2 0 2 2 2 2 2 2 2 2 2
5 5 5 5 5 5 4 4 4 4 4 3 3 3 3 3 4 4 3 3 3 3 3 2 1 1 2 2 3 3 3 3 3 3 2 2 2 2
6 5 5 5 5 5 4 5 5 4 4 4 4 3 3 3 3 3 3 3 3 2 2 1 0 1 1 2 2 2 3 2 2 2 3 5 5 6
Wind_Direction
136 130 123 122 123 133 141 146 144 147 180 235 226 346 120 112 103 95 88 80 76 71 67 63 60 59 58 58 58 58 57 55 54 53 53 51 50 50
133 124 113 116 110 116 133 133 135 143 158 210 208 197 138 122 109 105 97 86 80 78 73 69 66 62 61 61 60 60 57 55 53 52 52 50 49 48
137 136 134 128 116 114 115 117 120 125 131 127 80 104 103 107 103 103 99 93 85 82 81 76 72 68 66 64 63 62 59 55 53 52 51 50 48 47
162 145 146 132 117 118 119 122 125 128 134 135 116 92 101 134 120 111 104 97 95 86 85 83 77 74 71 69 67 63 59 56 53 51 50 49 48 46
166 160 157 139 130 125 125 125 123 117 115 132 137 103 75 106 95 82 84 75 94 93 89 82 80 78 75 74 70 66 62 59 55 52 49 48 46 45
161 159 158 155 157 149 139 136 129 119 118 124 125 113 95 96 107 106 79 37 69 90 91 90 83 76 74 74 71 67 64 61 58 54 51 48 46 43
144 151 163 161 162 158 153 153 142 134 132 131 134 122 125 132 165 167 142 105 33 62 86 76 75 62 54 63 68 68 66 63 58 53 51 48 45 42
147 149 151 153 150 148 148 153 155 152 156 151 158 165 192 188 168 160 151 131 273 326 117 61 73 47 28 52 66 67 65 62 56 51 49 47 42 39
161 162 156 149 147 142 133 128 136 152 158 159 166 188 190 196 173 164 166 161 191 207 133 121 24 25 346 24 55 58 51 44 43 45 47 44 36 32
161 164 158 157 158 152 141 130 128 139 159 157 173 190 191 185 178 173 166 143 94 37 126 151 236 322 12 8 15 29 32 30 30 35 44 44 38 31
149 150 155 161 166 154 144 143 139 135 127 148 158 160 163 162 151 128 130 131 150 303 116 145 171 128 6 346 356 9 17 29 39 40 43 40 35 28
139 151 163 167 166 159 153 154 161 178 145 117 105 99 107 134 154 156 163 157 158 214 229 148 154 128 26 314 354 7 19 23 34 33 32 27 25 30
163 172 179 169 165 163 161 166 174 163 145 139 126 99 77 81 92 122 148 159 164 198 199 154 152 148 154 261 316 339 2 4 13 15 12 12 14 28
176 180 179 172 167 162 162 167 161 146 139 137 138 154 163 185 158 110 119 126 135 157 171 158 156 168 159 167 267 302 326 345 5 4 1 1 2 359
169 166 163 162 158 158 162 159 150 145 150 159 180 207 213 191 133 100 86 90 77 72 107 142 146 161 160 181 207 247 275 297 332 323 335 346 336 338
141 144 140 137 131 135 139 148 153 164 168 179 188 199 173 141 152 155 147 129 87 15 35 78 138 148 164 179 180 226 229 248 284 289 293 314 330 327
141 123 120 124 130 128 123 138 144 149 163 174 179 184 177 167 181 167 152 139 155 196 326 11 70 104 131 161 173 234 247 263 258 257 229 297 299 316
143 155 168 173 178 183 183 183 182 184 187 184 185 190 190 188 185 167 156 164 179 202 213 214 129 59 29 359 230 225 257 259 271 277 210 259 293 308
157 177 185 189 192 191 192 193 202 204 187 181 189 192 188 185 176 175 170 173 191 206 213 189 167 159 192 265 299 306 216 247 271 281 258 239 262 279
185 186 193 193 192 193 192 193 192 181 179 184 188 189 183 177 177 183 186 189 195 199 202 199 199 201 209 221 238 289 315 218 232 260 270 270 275 300
193 193 193 189 188 189 189 188 184 186 186 186 188 188 182 175 183 188 185 181 184 193 205 230 243 219 164 104 107 294 308 323 256 241 250 272 298 313
192 194 193 188 185 186 186 182 180 184 185 186 188 185 182 180 185 185 184 184 194 201 215 232 201 132 141 180 222 254 282 315 336 330 306 264 215 250
195 193 191 189 187 184 182 183 183 189 190 187 183 180 174 176 182 180 182 182 180 184 192 214 195 151 180 191 215 246 269 289 311 324 312 328 302 296
Height
1551 1551 1552 1552 1553 1554 1555 1555 1556 1556 1558 1558 1558 1559 1558 1558 1557 1556 1555 1554 1552 1551 1549 1547 1545 1544 1542 1540 1538 1536 1535 1533 1532 1530 1529 1527 1526 1524
1551 1551 1552 1552 1553 1553 1554 1555 1556 1556 1556 1558 1558 1559 1559 1559 1558 1558 1556 1555 1554 1553 1551 1550 1548 1546 1544 1543 1541 1539 1537 1536 1534 1533 1531 1530 1528 1526
1550 1550 1551 1552 1552 1553 1554 1555 1555 1556 1556 1557 1558 1559 1559 1559 1559 1559 1558 1557 1556 1555 1553 1552 1550 1549 1547 1545 1543 1542 1540 1538 1537 1535 1533 1531 1530 1528
1549 1550 1551 1551 1552 1553 1554 1554 1555 1556 1556 1556 1558 1559 1559 1560 1560 1559 1559 1558 1557 1556 1555 1554 1552 1551 1549 1547 1545 1544 1542 1540 1539 1537 1535 1533 1531 1529
1549 1550 1550 1551 1551 1552 1553 1554 1554 1555 1556 1557 1557 1558 1559 1560 1560 1560 1559 1559 1558 1557 1556 1555 1554 1552 1551 1549 1547 1546 1544 1542 1540 1538 1536 1534 1533 1531
1548 1549 1550 1550 1551 1552 1553 1553 1554 1555 1556 1556 1557 1558 1559 1559 1559 1559 1559 1559 1558 1558 1557 1556 1555 1553 1552 1550 1549 1547 1545 1543 1541 1539 1537 1535 1534 1532
1547 1548 1549 1550 1551 1551 1552 1553 1554 1554 1555 1556 1556 1557 1558 1558 1558 1559 1559 1558 1558 1557 1557 1556 1555 1554 1552 1551 1549 1548 1546 1544 1542 1540 1538 1536 1535 1533
1547 1547 1548 1549 1550 1551 1552 1553 1553 1554 1554 1555 1556 1556 1556 1557 1558 1558 1558 1557 1557 1557 1556 1556 1555 1553 1552 1551 1550 1548 1547 1545 1543 1541 1539 1537 1535 1534
1546 1546 1547 1548 1549 1550 1551 1552 1552 1553 1554 1555 1555 1555 1555 1556 1556 1556 1556 1556 1556 1556 1556 1554 1554 1553 1552 1551 1550 1548 1547 1545 1543 1541 1539 1537 1536 1534
1544 1545 1546 1547 1548 1549 1550 1550 1551 1552 1552 1553 1554 1554 1555 1555 1555 1555 1555 1555 1555 1555 1554 1554 1553 1552 1552 1550 1549 1548 1546 1545 1543 1541 1539 1537 1535 1534
1543 1543 1544 1545 1546 1547 1548 1549 1550 1550 1551 1552 1553 1553 1553 1553 1553 1553 1553 1553 1553 1553 1553 1552 1551 1551 1550 1549 1548 1547 1545 1544 1542 1541 1539 1537 1535 1533
1540 1542 1543 1544 1545 1545 1546 1547 1548 1549 1550 1550 1551 1551 1551 1551 1551 1551 1551 1551 1551 1551 1551 1550 1550 1549 1548 1548 1547 1546 1545 1543 1542 1540 1538 1536 1534 1532
1538 1539 1540 1541 1542 1543 1544 1545 1546 1547 1548 1548 1549 1549 1549 1549 1549 1549 1549 1549 1549 1548 1549 1548 1547 1547 1547 1546 1545 1544 1543 1541 1540 1538 1537 1535 1533 1531
1536 1537 1538 1539 1540 1541 1542 1543 1544 1545 1545 1546 1546 1546 1547 1547 1547 1547 1547 1547 1547 1547 1546 1546 1545 1545 1544 1543 1542 1542 1541 1540 1538 1536 1535 1533 1531 1529
1534 1535 1536 1537 1538 1539 1540 1541 1542 1542 1543 1543 1543 1544 1544 1544 1545 1545 1544 1544 1544 1544 1543 1543 1543 1542 1542 1541 1540 1539 1538 1537 1536 1534 1533 1531 1529 1526
1531 1532 1533 1534 1535 1536 1537 1538 1539 1540 1540 1540 1541 1541 1541 1541 1541 1542 1541 1541 1541 1540 1540 1540 1540 1540 1539 1538 1537 1536 1536 1535 1533 1532 1530 1528 1527 1524
1528 1529 1530 1530 1531 1532 1534 1535 1536 1536 1537 1537 1538 1538 1538 1538 1538 1538 1538 1538 1537 1537 1537 1537 1537 1536 1536 1535 1534 1533 1532 1531 1530 1529 1527 1525 1524 1522
1525 1525 1526 1527 1528 1529 1530 1531 1532 1533 1533 1534 1534 1535 1535 1535 1534 1535 1534 1534 1534 1534 1534 1534 1534 1533 1533 1531 1532 1530 1529 1528 1527 1526 1524 1522 1520 1519
1521 1521 1522 1523 1524 1525 1526 1527 1528 1529 1530 1530 1531 1531 1531 1531 1531 1531 1531 1531 1530 1530 1530 1530 1530 1529 1528 1527 1527 1527 1526 1524 1523 1522 1521 1519 1517 1515
1516 1517 1518 1520 1521 1522 1523 1524 1524 1525 1526 1526 1527 1527 1527 1527 1527 1527 1527 1527 1527 1526 1526 1526 1525 1525 1525 1524 1523 1523 1522 1521 1519 1518 1517 1515 1513 1512
1511 1513 1515 1516 1517 1518 1519 1520 1521 1521 1522 1522 1523 1523 1523 1524 1523 1523 1523 1523 1523 1523 1522 1522 1522 1522 1521 1521 1520 1518 1518 1517 1516 1515 1513 1511 1509 1507
1507 1509 1510 1511 1513 1514 1515 1516 1516 1517 1518 1518 1519 1519 1520 1520 1520 1520 1519 1519 1519 1519 1518 1518 1518 1518 1517 1517 1515 1515 1514 1514 1513 1511 1510 1508 1506 1503
1503 1505 1506 1507 1508 1509 1510 1511 1512 1513 1514 1514 1515 1515 1515 1515 1515 1515 1516 1516 1515 1515 1515 1515 1515 1514 1513 1513 1512 1511 1510 1509 1508 1507 1506 1505 1503 1501